User: anonymous   Login
Location: Caltech
(34.1382°N, 118.1253°W)
Time: 02:09:28
(UTC-07:00)
Language:

Cosmos 1733 Rocket - Orbit

View from above orbital plane
View from above orbital plane
View from above satellite
View from above satellite

Ground track
Ground track

The orbit data is extracted from the following two-line orbital elements,

1 16612U 86018B   17086.85253844 +.00000117 +00000-0 +11024-4 0  9991
2 16612 082.5198 012.7389 0019148 063.8688 353.6378 14.84137823558298
Epoch (UTC): 27 March 2017 20:27:39
Eccentricity: 0.0019148
inclination: 82.5198°
perigee height: 603 km
apogee height: 629 km
right ascension of ascending node: 12.7389°
argument of perigee: 63.8688°
revolutions per day: 14.84137823
mean anomaly at epoch: 353.6378°
orbit number at epoch: 55829

The dashed part of the orbit path shows where the satellite is in the earth's shadow,  

DLR